EW7157 Weather Reports


Display with metric or nautical units.
time (UTC)temp
F
wind
direction
speed
MPH
gust
MPH
rain 1hr
in
rain 24hr
in
rain mn
in
humidity
%
barometer
mb
20260508173419 67 225 0.0 1.0 0.00 0.00 0.00 33 1034.4
20260508173317 67 199 1.0 4.0 0.00 0.00 0.00 32 1034.5
20260508165319 66 186 1.0 5.0 0.00 0.00 0.00 36 1034.6
20260508165218 66 141 0.0 1.0 0.00 0.00 0.00 36 1034.5
20260508163219 65 159 0.0 2.0 0.00 0.00 0.00 37 1034.9
20260508162220 65 168 0.0 1.0 0.00 0.00 0.00 36 1035.3
20260508161219 66 90 0.0 1.0 0.00 0.00 0.00 34 1035.4
20260508160220 66 180 0.0 0.0 0.00 0.00 0.00 36 1035.6
20260508155222 64 180 0.0 0.0 0.00 0.00 0.00 36 1035.6
20260508154220 64 126 1.0 3.0 0.00 0.00 0.00 36 1035.9
20260508153219 64 103 0.0 3.0 0.00 0.00 0.00 35 1036.0
20260508153121 64 32 0.0 1.0 0.00 0.00 0.00 35 1035.9
20260508152120 65 4 0.0 1.0 0.00 0.00 0.00 35 1035.9
20260508151120 64 124 0.0 1.0 0.00 0.00 0.00 36 1036.0
20260508151021 63 101 0.0 1.0 0.00 0.00 0.00 36 1036.0
20260508150118 62 254 0.0 1.0 0.00 0.00 0.00 36 1036.2
20260508145118 62 147 0.0 0.0 0.00 0.00 0.00 38 1036.0
20260508144121 63 225 0.0 0.0 0.00 0.00 0.00 36 1036.2
20260508143218 63 157 0.0 1.0 0.00 0.00 0.00 36 1036.2
20260508142221 62 67 0.0 0.0 0.00 0.00 0.00 36 1036.2
20260508140322 60 57 0.0 3.0 0.00 0.00 0.00 41 1036.4
20260508135418 59 180 0.0 0.0 0.00 0.00 0.00 44 1036.5
20260508134421 58 166 1.0 3.0 0.00 0.00 0.00 45 1036.4
20260508133518 58 159 1.0 2.0 0.00 0.01 0.00 47 1036.5
20260508132522 58 135 0.0 0.0 0.00 0.01 0.00 46 1036.6
20260508131519 56 136 0.0 2.0 0.00 0.01 0.00 48 1036.5
20260508131420 56 179 0.0 2.0 0.00 0.01 0.00 49 1036.6
20260508131318 56 183 0.0 0.0 0.00 0.01 0.00 49 1036.6
20260508130319 54 225 0.0 0.0 0.00 0.01 0.00 56 1036.6
20260508124419 51 157 0.0 0.0 0.00 0.01 0.00 64 1036.5
20260508124318 51 157 0.0 0.0 0.00 0.01 0.00 65 1036.6
20260508123318 51 180 0.0 0.0 0.00 0.01 0.00 66 1036.6
20260508123218 50 151 0.0 2.0 0.00 0.01 0.00 66 1036.6
20260508122220 50 180 0.0 0.0 0.00 0.01 0.00 71 1036.5
20260508121220 48 332 0.0 0.0 0.00 0.01 0.00 75 1036.2
20260508120221 47 180 0.0 0.0 0.00 0.01 0.00 78 1036.0
20260508115221 47 180 0.0 0.0 0.00 0.01 0.00 81 1035.9
20260508115121 47 180 0.0 1.0 0.00 0.01 0.00 80 1036.0
20260508114219 46 180 0.0 0.0 0.00 0.01 0.00 82 1035.8
20260508113219 45 180 0.0 0.0 0.00 0.01 0.00 85 1036.0
20260508112219 44 180 0.0 0.0 0.00 0.01 0.00 86 1036.0
20260508111219 43 180 0.0 0.0 0.00 0.01 0.00 87 1036.0
20260508105222 42 180 0.0 0.0 0.00 0.01 0.00 86 1035.4
20260508104221 42 180 0.0 0.0 0.00 0.01 0.00 85 1035.3
20260508103318 42 180 0.0 0.0 0.00 0.01 0.00 86 1035.4
20260508102321 42 180 0.0 0.0 0.00 0.01 0.00 86 1035.4
20260508101322 42 180 0.0 0.0 0.00 0.01 0.00 85 1035.3
20260508100419 42 180 0.0 0.0 0.00 0.01 0.00 82 1035.0
20260508095518 42 180 0.0 0.0 0.00 0.01 0.00 82 1035.0
20260508092620 43 180 0.0 0.0 0.00 0.01 0.00 79 1035.0
20260508091719 44 180 0.0 0.0 0.00 0.01 0.00 79 1035.0
20260508090720 44 180 0.0 0.0 0.00 0.01 0.00 78 1034.8
20260508085721 45 180 0.0 0.0 0.00 0.01 0.00 76 1034.8
20260508084819 45 180 0.0 0.0 0.00 0.01 0.00 76 1034.7
20260508083719 46 180 0.0 0.0 0.00 0.01 0.00 75 1034.6
20260508082720 46 180 0.0 0.0 0.00 0.01 0.00 74 1034.5
20260508075821 48 180 0.0 0.0 0.00 0.04 0.00 71 1033.8
20260508074821 48 180 0.0 0.0 0.00 0.05 0.00 71 1033.8
20260508073819 48 135 0.0 0.0 0.00 0.07 0.00 71 1033.7
20260508073719 48 135 0.0 0.0 0.00 0.07 0.00 71 1033.7
20260508071819 48 90 0.0 0.0 0.00 0.10 0.00 71 1033.4
20260508070917 48 135 0.0 0.0 0.00 0.11 0.00 72 1033.2
20260508065920 48 180 0.0 0.0 0.00 0.11 0.00 75 1033.0
20260508065819 48 180 0.0 0.0 0.00 0.12 0.00 75 1033.1
20260508065720 48 180 0.0 0.0 0.00 0.12 0.00 75 1033.1
20260508063720 48 135 0.0 0.0 0.00 0.13 0.00 78 1033.0
20260508062719 48 153 0.0 0.0 0.00 0.15 0.00 79 1032.8
20260508061818 48 180 0.0 0.0 0.00 0.18 0.00 78 1032.7
20260508060822 49 180 0.0 0.0 0.00 0.20 0.00 75 1032.1
20260508055819 49 180 0.0 0.0 0.00 0.21 0.00 73 1032.1
20260508055720 49 180 0.0 0.0 0.00 0.21 0.00 74 1032.1
20260508054719 50 180 0.0 0.0 0.00 0.22 0.00 71 1032.0
20260508053718 50 180 0.0 0.0 0.00 0.22 0.00 71 1032.0
20260508052720 50 180 0.0 0.0 0.00 0.22 0.00 70 1031.9
20260508050818 51 180 0.0 0.0 0.00 0.28 0.00 69 1031.8
20260508045822 51 180 0.0 0.0 0.00 0.28 0.00 68 1031.7
20260508044919 51 180 0.0 0.0 0.00 0.28 0.00 67 1031.5
20260508043921 51 180 0.0 0.0 0.00 0.28 0.00 65 1031.5
20260508043018 51 180 0.0 0.0 0.00 0.28 0.00 66 1031.5
20260508042020 51 180 0.0 0.0 0.00 0.28 0.00 67 1031.6
20260508041019 51 180 0.0 0.0 0.00 0.28 0.00 66 1031.6
20260508040030 51 180 0.0 0.0 0.00 0.28 0.00 66 1031.7
20260508035028 51 180 0.0 0.0 0.00 0.28 0.28 66 1031.5
20260508034928 51 180 0.0 0.0 0.00 0.28 0.28 67 1031.5
20260508033928 51 180 0.0 0.0 0.00 0.28 0.28 66 1031.2
20260508032929 51 180 0.0 0.0 0.00 0.28 0.28 65 1031.2
20260508032027 51 180 0.0 0.0 0.00 0.28 0.28 65 1031.2
20260508031928 51 180 0.0 0.0 0.00 0.28 0.28 64 1031.2
20260508025927 50 180 0.0 0.0 0.00 0.30 0.28 64 1031.2
20260508025827 50 180 0.0 0.0 0.00 0.30 0.28 65 1031.2
20260508024828 50 180 0.0 0.0 0.00 0.30 0.28 64 1031.3
20260508023829 50 180 0.0 0.0 0.00 0.30 0.28 64 1031.3
20260508023729 50 180 0.0 0.0 0.00 0.30 0.28 64 1031.4
20260508022729 50 180 0.0 0.0 0.00 0.30 0.28 62 1031.4
20260508021729 50 180 0.0 0.0 0.00 0.30 0.28 57 1031.4
20260508020729 51 180 0.0 0.0 0.00 0.32 0.28 56 1031.2
20260508015727 51 180 0.0 0.0 0.00 0.33 0.28 54 1031.1
20260508014728 51 180 0.0 0.0 0.00 0.36 0.28 53 1031.0
20260508013728 52 180 0.0 0.0 0.00 0.42 0.28 51 1031.0
20260508013629 52 180 0.0 0.0 0.00 0.42 0.28 52 1031.0
20260508011627 53 180 0.0 0.0 0.00 0.42 0.28 50 1030.9
20260508010629 53 180 0.0 0.0 0.00 0.42 0.28 51 1030.9
20260508005628 54 180 0.0 0.0 0.00 0.42 0.28 48 1030.9
20260508004628 54 180 0.0 0.0 0.00 0.42 0.28 48 1030.9
20260508003628 55 180 0.0 0.0 0.00 0.42 0.28 47 1030.7
20260508003528 55 180 0.0 0.0 0.00 0.42 0.28 47 1030.7
20260508001527 56 180 0.0 0.0 0.00 0.42 0.28 46 1030.6
20260508000527 57 180 0.0 0.0 0.00 0.42 0.28 45 1030.5
20260507234529 58 180 0.0 0.0 0.00 0.42 0.28 42 1030.4
20260507233529 59 180 0.0 0.0 0.00 0.42 0.28 42 1030.4
20260507232528 60 180 0.0 0.0 0.00 0.42 0.28 40 1030.4
20260507232431 60 180 0.0 0.0 0.00 0.42 0.28 40 1030.3
20260507231427 61 180 0.0 0.0 0.00 0.42 0.28 39 1030.2
20260507230429 62 180 0.0 0.0 0.00 0.42 0.28 38 1030.2
20260507225430 62 165 0.0 1.0 0.00 0.42 0.28 37 1030.1
20260507224428 62 180 0.0 2.0 0.00 0.42 0.28 37 1030.0
20260507224329 62 176 1.0 3.0 0.00 0.42 0.28 38 1030.1
20260507223328 63 156 0.0 1.0 0.00 0.42 0.28 35 1030.0
20260507222427 63 180 0.0 0.0 0.00 0.42 0.28 33 1030.1
20260507220429 63 171 0.0 3.0 0.00 0.42 0.28 34 1030.1
20260507215330 63 135 0.0 0.0 0.00 0.42 0.28 35 1030.1
20260507214427 64 180 0.0 2.0 0.00 0.42 0.28 35 1030.1
20260507211428 65 157 0.0 3.0 0.00 0.43 0.28 32 1030.1
20260507210429 65 236 0.0 1.0 0.00 0.43 0.28 34 1030.0
20260507205428 66 202 0.0 0.0 0.00 0.43 0.28 31 1029.9
20260507204430 68 180 0.0 1.0 0.00 0.43 0.28 30 1029.8
20260507203427 69 70 0.0 2.0 0.00 0.43 0.28 28 1029.8
20260507202429 70 140 1.0 4.0 0.00 0.43 0.28 29 1029.8
20260507201428 69 225 0.0 2.0 0.00 0.43 0.28 30 1029.8
20260507200428 69 220 0.0 1.0 0.00 0.43 0.28 30 1030.1
20260507195428 67 90 0.0 0.0 0.00 0.43 0.28 30 1030.0
20260507194427 68 76 1.0 3.0 0.00 0.43 0.28 29 1030.3
20260507193428 69 90 0.0 1.0 0.00 0.43 0.28 30 1030.5
20260507191429 69 187 0.0 1.0 0.00 0.43 0.28 30 1030.5
20260507191329 69 215 0.0 1.0 0.00 0.43 0.28 30 1030.6
20260507190327 67 183 0.0 3.0 0.00 0.43 0.28 30 1030.8
20260507185328 68 90 0.0 0.0 0.00 0.43 0.28 30 1031.0
20260507184328 69 155 0.0 3.0 0.00 0.43 0.28 31 1030.9
20260507183330 68 180 0.0 1.0 0.00 0.43 0.28 33 1031.0
20260507183228 68 180 0.0 0.0 0.00 0.43 0.28 32 1031.0
20260507182226 67 135 0.0 1.0 0.00 0.43 0.28 31 1031.1
20260507181228 66 180 0.0 1.0 0.00 0.43 0.28 33 1031.4
20260507180227 65 45 1.0 2.0 0.00 0.43 0.28 31 1031.4
20260507175228 65 62 2.0 3.0 0.00 0.43 0.28 33 1031.5